Terminal Aerodrome Forecast
Issued by NWS

Current Version | Previous Version | Text Only | Print | Product List | Glossary On
Versions: 1 2 3 4 5 6 7 8 9 10 11 12 13 14 15 16 17 18 19 20 21 22 23 24 25 26 27 28 29 30 31 32 33 34 35 36 37 38 39 40 41 42 43 44 45 46 47 48 49 50
000
FTUS41 KCTP 250916 AAA
TAFAOO
TAF AMD
KAOO 250916Z 2509/2606 26010G20KT P6SM BKN030
     FM251400 28018G32KT P6SM BKN030
     FM251900 28015G25KT P6SM SCT030
     FM260400 27007KT P6SM SCT025=

USA.gov is the U.S. government's official web portal to all federal, state and local government web resources and services.